GW3474 Weather Reports


time (UTC)temp
C
wind
direction
speed
KPH
gust
KPH
rain 1hr
cm
rain 24hr
cm
rain mn
cm
humidity
%
barometer
mb
20260504050516 17 0.0 0.0 0.00 0.00 0.00 45 1010.4
20260504045557 17 0.0 0.0 0.00 0.00 0.00 44 1010.4
20260504044516 17 0.0 0.0 0.00 0.00 0.00 43 1010.4
20260504043515 17 0.0 0.0 0.00 0.00 0.00 42 1010.4
20260504042515 17 0.0 0.0 0.00 0.00 0.00 41 1010.4
20260504041536 17 0.0 0.0 0.00 0.00 0.00 40 1010.4
20260504040537 18 0.0 0.0 0.00 0.00 0.00 40 1010.4
20260504035515 18 0.0 0.0 0.00 0.00 0.00 38 1010.4
20260504034515 18 0.0 0.0 0.00 0.00 0.00 37 1010.5
20260504033515 19 0.0 0.0 0.00 0.00 0.00 35 1010.5
20260504032515 20 0.0 0.0 0.00 0.00 0.00 33 1010.4
20260504031515 20 0.0 0.0 0.00 0.00 0.00 32 1010.4
20260504030516 20 0.0 0.0 0.00 0.00 0.00 32 1010.1
20260504025515 20 0.0 0.0 0.00 0.00 0.00 31 1010.1
20260504024515 21 0.0 0.0 0.00 0.00 0.00 29 1010.0
20260504023537 21 0.0 0.0 0.00 0.00 0.00 28 1009.6
20260504022516 21 0.0 0.0 0.00 0.00 0.00 27 1009.6
20260504021515 22 0.0 0.0 0.00 0.00 0.00 27 1009.6
20260504020515 22 0.0 0.0 0.00 0.00 0.00 26 1009.3
20260504015538 23 0.0 0.0 0.00 0.00 0.00 24 1009.3
20260504014515 23 0.0 0.0 0.00 0.00 0.00 23 1009.1
20260504013515 23 0.0 0.0 0.00 0.00 0.00 23 1008.8
20260504012515 24 0.0 0.0 0.00 0.00 0.00 21 1008.8
20260504011517 25 0.0 0.0 0.00 0.00 0.00 20 1008.9
20260504010515 26 0.0 0.0 0.00 0.00 0.00 18 1008.8
20260504005516 26 0.0 0.0 0.00 0.00 0.00 18 1009.0
20260504004516 26 0.0 0.0 0.00 0.00 0.00 17 1009.1
20260504003516 26 0.0 0.0 0.00 0.00 0.00 16 1008.9
20260504002515 27 0.0 0.0 0.00 0.00 0.00 16 1009.1
20260504001515 27 0.0 0.0 0.00 0.00 0.00 15 1009.2
20260504000515 27 0.0 0.0 0.00 0.00 0.00 16 1009.4
20260503235515 27 0.0 0.0 0.00 0.00 0.00 16 1009.7
20260503234515 27 0.0 0.0 0.00 0.00 0.00 16 1009.9
20260503233516 27 0.0 0.0 0.00 0.00 0.00 16 1010.0
20260503232515 27 0.0 0.0 0.00 0.00 0.00 17 1010.2
20260503231516 27 0.0 0.0 0.00 0.00 0.00 15 1010.4
20260503230516 27 0.0 0.0 0.00 0.00 0.00 16 1010.5
20260503225515 27 0.0 0.0 0.00 0.00 0.00 16 1010.7
20260503224515 27 0.0 0.0 0.00 0.00 0.00 16 1010.8
20260503223516 27 0.0 0.0 0.00 0.00 0.00 16 1010.9
20260503222516 27 0.0 0.0 0.00 0.00 0.00 17 1011.1
20260503221516 27 0.0 0.0 0.00 0.00 0.00 16 1011.1
20260503220515 27 0.0 0.0 0.00 0.00 0.00 16 1011.3
20260503215516 26 0.0 0.0 0.00 0.00 0.00 17 1011.5
20260503214515 27 0.0 0.0 0.00 0.00 0.00 16 1011.6
20260503213515 27 0.0 0.0 0.00 0.00 0.00 17 1011.8
20260503212516 27 0.0 0.0 0.00 0.00 0.00 16 1012.0
20260503211515 27 0.0 0.0 0.00 0.00 0.00 16 1012.2
20260503210515 27 0.0 0.0 0.00 0.00 0.00 16 1012.5
20260503205516 26 0.0 0.0 0.00 0.00 0.00 17 1012.5
20260503204516 27 0.0 0.0 0.00 0.00 0.00 16 1012.8
20260503203516 27 0.0 0.0 0.00 0.00 0.00 15 1013.2
20260503202535 27 0.0 0.0 0.00 0.00 0.00 16 1013.3
20260503201516 27 0.0 0.0 0.00 0.00 0.00 15 1013.3
20260503200515 26 0.0 0.0 0.00 0.00 0.00 16 1013.5
20260503195516 26 0.0 0.0 0.00 0.00 0.00 14 1013.6
20260503194515 27 0.0 0.0 0.00 0.00 0.00 15 1013.9
20260503193515 26 0.0 0.0 0.00 0.00 0.00 15 1013.9
20260503192515 26 0.0 0.0 0.00 0.00 0.00 15 1014.0
20260503191517 26 0.0 0.0 0.00 0.00 0.00 15 1014.2
20260503190515 26 0.0 0.0 0.00 0.00 0.00 15 1014.4
20260503185515 26 0.0 0.0 0.00 0.00 0.00 16 1014.8
20260503184516 26 0.0 0.0 0.00 0.00 0.00 16 1015.0
20260503183516 26 0.0 0.0 0.00 0.00 0.00 17 1015.3
20260503182516 26 0.0 0.0 0.00 0.00 0.00 18 1015.5
20260503181515 26 0.0 0.0 0.00 0.00 0.00 18 1015.6
20260503180515 26 0.0 0.0 0.00 0.00 0.00 20 1016.1
20260503175518 25 0.0 0.0 0.00 0.00 0.00 20 1016.3
20260503174516 25 0.0 0.0 0.00 0.00 0.00 21 1016.4
20260503173516 25 0.0 0.0 0.00 0.00 0.00 22 1016.5
20260503172515 25 0.0 0.0 0.00 0.00 0.00 20 1016.6
20260503171517 24 0.0 0.0 0.00 0.00 0.00 20 1016.9
20260503170515 24 0.0 0.0 0.00 0.00 0.00 23 1017.2
20260503150538 21 0.0 0.0 0.00 0.00 0.00 36 1018.4
20260503130516 10 0.0 0.0 0.00 0.00 0.00 74 1018.0
20260503110515 7 0.0 0.0 0.00 0.00 0.00 80 1017.2
20260503081515 10 0.0 0.0 0.00 0.00 0.00 71 1018.7
20260503080515 10 0.0 0.0 0.00 0.00 0.00 69 1018.8
20260503072515 10 0.0 0.0 0.00 0.00 0.00 69 1019.0
20260503071516 10 0.0 0.0 0.00 0.00 0.00 68 1019.1
20260503070536 11 0.0 0.0 0.00 0.00 0.00 68 1019.4